Showing default

BUGSAT 1, 40014

Orbit data source: Space-Track

BUGSAT 1, 40014 is a payload satellite owned by Satellogic SA (AR) in SSO that was launched on Thu, 19 Jun 2014 UTC via a DNEPR launch vehicle from the Orenburg, Russia (OREN). Payload-class satellites include a variety of spacecraft equipped with specific instruments for various scientific and technological missions. These include communications satellites like Starlink; space stations such as the ISS; scientific satellites like the Hubble; Earth observation satellites from companies like Planet Labs, Umbra, and HawkEye 360; GPS; miniature CubeSats for education and research; and military/defense satellites.

Loading next visibility...
Identifier
40014, 2014-033E
Orbit
SSO
Last TLE update
8 hours ago
Origin
Manufacturer
Satellogic SA
Mission
Operational Commercial Imaging
Bus & Motor
BUGSAT, Unknown motor
Mass
22 kg wet, 22 kg dry
Launch date (UTC)
2014-06-19 (11 years ago)
Launch vehicle
DNEPR
Launch site
Orenburg, Russia (OREN)
Object type
Payload
Rocket body
Debris
Shape & HBR
Box, 0.5 m
Radar Cross Section
0.263 m², Medium (>0.1 m² and < 1m²)

Expand to show TLE details & history

TLE from 8 hours ago
0 BUGSAT 1
1 40014U 14033E   25183.92087394  .00003591  00000-0  21706-3 0  9998
2 40014  98.0732 251.7883 0029462 290.4704  69.3362 15.11034891603015
Epoch: 2025-07-02T22:06Z
TLE epoch observation values (Epoch: 2025-07-02T22:06:03.508Z)
Latitude
-0.00002°
Longitude
-0.92136°
Altitude
528.967 km
Speed
7.602 km/s
True Right ascension
16h 47m 09s
True Declination
0° 00' 00"
Sunlit
Object was in full shadow at epoch
Visualization orbit readout
Latitude
73.53473°
Longitude
-152.04235°
Altitude
565.947 km
Speed
7.574 km/s
Apparent Right ascension
06h 23m 50s
Apparent Declination
20° 30' 08"
Sunlit
Object is in daylight
Visualization observer readout
Local Sidereal Time
18:16:15
Azimuth
357.959° N
Elevation
-29.556°
Doppler factor
1
Orbital elements
Apogee altitude
550.403 km
Perigee altitude
509.697 km
Semi-major axis
6,908.187 km
Eccentricity
0.00295
Inclination
98.0732°
RAAN
251.7883°
Arg. of periapsis
290.4704°
True anomaly
Unknown
Mean anomaly
69.3362°
Eccentric anomaly
Unknown
Mean motion
3.78005 °/min
Orbital period
95.24 mins
BSTAR
0.00021706
Loading maneuver chart data...
Loading SW <> Apogee altitude chart data...
Loading historical data...
Loading historical data...
Loading historical data...
Loading historical data...
Loading historical data...
Loading historical data...
Loading historical data...

BUGSAT 1 Visibility forecast

Observer location: undefined°, undefined°

Span
Click to sort rows by Start time (UTC) header in descending order
Start Az.
Max El. time (UTC)
Max El. Az.
Max El.
End time (UTC)
End Az.
6 mins2025-07-03 17:44:34.093Z358.266° N2025-07-03 17:47:34.093Z263.156° W38.312°2025-07-03 17:50:34.093Z210.359° SW
5 mins2025-07-04 04:26:34.093Z155.129° SSE2025-07-04 04:28:34.093Z83.877° E43.653°2025-07-04 04:31:34.093Z352.926° N
|